This demonstration page uses our WeatherBlox Daily Observations layout. Learn more.

39.08367, -84.50855

Hourly Observations for January 25, 2021

Temp ( °F °C ) Dew Point ( °F °C ) Humidity (%) Winds ( mph kmh ) Pressure ( in mb ) Visibility ( mi km ) Precip ( " mm )
12:15 am 00:15 Cloudy with Mist and Fog 33 0.6 33 0.6 100 100 Calm 30.12 1020 0.75 1.207005 0 0
12:50 am 00:50 Cloudy with Fog 34 1 32 0 93 93 Calm 30.11 1020 0.5 0.80467 0 0
12:53 am 00:53 Cloudy with Fog 33 0.6 32 0 96 96 Calm 30.09 1019 0.5 0.80467 0 0
1:22 am 01:22 Cloudy with Mist and Fog 33 0.6 32 0 96 96 NE 5 7 30.09 1019 1 1.60934 0 0
1:53 am 01:53 Cloudy with Mist and Fog 33 0.6 32 0 96 96 NW 3 6 30.09 1019 1.25 2.011675 0 0
2:07 am 02:07 Cloudy with Mist and Fog 33 0.6 32 0 96 96 WNW 3 6 30.12 1020 3 4.82802 0 0
2:53 am 02:53 Cloudy 34 1.1 31 -0.6 89 89 N 5 7 30.11 1020 9 14.48406 0 0
3:53 am 03:53 Cloudy 33 0.6 30 -1.1 89 89 NNE 5 7 30.1 1019 9 14.48406 0 0
4:53 am 04:53 Cloudy 32 0 29 -1.7 88 88 NE 6 9 30.1 1019 10 16.0934 0 0
5:53 am 05:53 Cloudy 32 0 29 -1.7 88 88 ENE 5 7 30.08 1019 9 14.48406 0 0
6:53 am 06:53 Cloudy 32 0 29 -1.7 88 88 NE 7 11 30.09 1019 10 16.0934 0 0
7:53 am 07:53 Cloudy 32 0 28 -2.2 85 85 ENE 6 9 30.06 1018 10 16.0934 0 0
8:53 am 08:53 Cloudy 32 0 28 -2.2 85 85 NE 10 17 30.07 1018 10 16.0934 0 0
9:53 am 09:53 Cloudy 32 0 28 -2.2 85 85 ENE 6 9 30.05 1018 9 14.48406 0 0
10:53 am 10:53 Cloudy with Rain 32 0 29 -1.7 88 88 NE 8 13 30.04 1017 6 9.65604 0.001 0.001
11:53 am 11:53 Cloudy with Rain 32 0 30 -1.1 92 92 NE 8 13 29.96 1015 3 4.82802 0.01 0.254
12:53 pm 12:53 Cloudy with Rain 32 0 30 -1.1 92 92 NNE 8 13 29.96 1014 2 3.21868 0.13 3.302
1:53 pm 13:53 Cloudy with Rain 33 0.6 31 -0.6 92 92 NE 12 19 29.91 1013 2 3.21868 0.16 4.064
2:00 pm 14:00 Cloudy with Rain 33 0.6 31 -0.6 92 92 NE 9 15 29.93 1013 3 4.82802 0.01 0.254
2:53 pm 14:53 Cloudy with Rain 34 1.1 32 0 92 92 ENE 9 15 29.88 1012 4 6.43736 0.04 1.016
3:53 pm 15:53 Cloudy with Rain 35 1.7 32 0 89 89 NNE 6 9 29.85 1011 10 16.0934 0.01 0.254
4:21 pm 16:21 Cloudy 35 1.7 32 0 89 89 NNE 7 11 29.86 1011 10 16.0934 0.001 0.001
4:53 pm 16:53 Cloudy 35 1.7 32 0 89 89 NE 6 9 29.85 1011 10 16.0934 0.001 0.001
5:30 pm 17:30 Cloudy with Light Rain 34 1.1 33 0.6 97 97 NE 9 15 29.81 1009 3 4.82802 0.01 0.254
5:37 pm 17:37 Cloudy with Mist and Fog 34 1.1 33 0.6 97 97 NE 12 19 29.8 1009 3 4.82802 0.01 0.254
5:53 pm 17:53 Cloudy 34 1.1 32 0 92 92 NE 10 17 29.77 1008 7 11.26538 0.01 0.254
6:53 pm 18:53 Cloudy 35 1.7 33 0.6 93 93 NE 5 7 29.76 1008 10 16.0934 0 0
7:53 pm 19:53 Cloudy 36 2.2 33 0.6 89 89 NE 6 9 29.78 1008 10 16.0934 0 0
8:53 pm 20:53 Cloudy 35 1.7 33 0.6 93 93 NE 6 9 29.78 1008 10 16.0934 0.001 0.001
9:53 pm 21:53 Cloudy with Light Rain 35 1.7 33 0.6 93 93 NNE 8 13 29.77 1008 7 11.26538 0.06 1.524
11:53 pm 23:53 Cloudy 35 1.7 33 0.6 93 93 ENE 7 11 29.71 1006 9 14.48406 0.001 0.001

Powered by AerisWeather